NORTHEAST SUFFOLK  -  Freeze Watch Freeze Watch        NORTHWEST SUFFOLK  -  Freeze Watch Freeze Watch        SOUTHEAST SUFFOLK  -  Freeze Watch Freeze Watch        SOUTHWEST SUFFOLK  -  Freeze Watch Freeze Watch      

Active alerts

Northwest Suffolk
  Details for Northwest Suffolk Freeze Watch
Southwest Suffolk
  Details for Southwest Suffolk Freeze Watch
Northeast Suffolk
  Details for Northeast Suffolk Freeze Watch
Southeast Suffolk
  Details for Southeast Suffolk Freeze Watch


WXM80 ListenWXM80 Stop

You find our weather info also at:

UK Metoffice

WeatherCloud

Weather Underground

Northeastern Weather Network

AWEKAS

Citizen Weather Observer Program (CWOP)

HAMweather, WeatherForYou, PWS Weather


Weather Underground History page Text

Daily Summary for April 22, 2016 Units:  English    Metric   Both
« Previous Day
Next Day »
Daily Weekly Monthly Yearly Custom
  High: Low: Average:
Temperature: 81.9 °F 58.0 °F 69.6 °F
Dew Point: 63.2 °F 52.6 °F 57.6 °F
Humidity: 85 % 51 % 67 %
Wind Speed: 6.4 mph 0.0 mph 2.6 mph
Wind Gust: 12.0 mph - -
Wind:- - SSW
Pressure: 29.94 in 29.77 in -
Precipitation: 0.00 in    
Historical Graphs
 
 
Tabular Data for April 22, 2016
Time Temperature Dew Point Pressure Wind Wind Speed Wind Gust Humidity Rainfall Rate (Hourly)
00:01 61.9 °F 53.5 °F 29.94 in SW 3.0 mph 5.8 mph 74 % 0.00 in
00:06 62.0 °F 53.6 °F 29.94 in SSW 2.9 mph 6.0 mph 74 % 0.00 in
00:11 62.0 °F 53.6 °F 29.93 in SSW 2.6 mph 6.9 mph 74 % 0.00 in
00:16 62.0 °F 53.6 °F 29.93 in SW 3.7 mph 7.0 mph 74 % 0.00 in
00:21 62.1 °F 53.7 °F 29.93 in SW 2.7 mph 8.1 mph 74 % 0.00 in
00:27 62.1 °F 53.7 °F 29.94 in SSW 4.2 mph 7.0 mph 74 % 0.00 in
00:32 62.2 °F 53.8 °F 29.94 in WSW 4.4 mph 11.5 mph 74 % 0.00 in
00:37 62.3 °F 53.5 °F 29.94 in SW 5.1 mph 6.9 mph 73 % 0.00 in
00:42 62.3 °F 53.9 °F 29.94 in SW 3.9 mph 4.6 mph 74 % 0.00 in
00:47 62.4 °F 54.0 °F 29.94 in SW 4.0 mph 6.9 mph 74 % 0.00 in
00:52 62.3 °F 53.5 °F 29.94 in SW 4.9 mph 9.2 mph 73 % 0.00 in
00:57 62.3 °F 53.5 °F 29.94 in WSW 3.2 mph 7.0 mph 73 % 0.00 in
01:02 62.2 °F 53.4 °F 29.94 in SSW 4.9 mph 8.1 mph 73 % 0.00 in
01:07 62.2 °F 53.4 °F 29.94 in SSW 4.0 mph 6.9 mph 73 % 0.00 in
01:12 62.2 °F 53.1 °F 29.93 in SW 4.0 mph 9.2 mph 72 % 0.00 in
01:18 62.3 °F 53.2 °F 29.93 in SW 4.0 mph 8.1 mph 72 % 0.00 in
01:23 62.3 °F 53.2 °F 29.93 in WSW 6.1 mph 9.2 mph 72 % 0.00 in
01:28 62.4 °F 52.9 °F 29.93 in SW 4.4 mph 6.9 mph 71 % 0.00 in
01:33 62.5 °F 53.0 °F 29.93 in SW 4.1 mph 7.0 mph 71 % 0.00 in
01:38 62.6 °F 53.1 °F 29.93 in SW 3.5 mph 6.9 mph 71 % 0.00 in
01:43 62.8 °F 52.9 °F 29.93 in WSW 3.7 mph 8.1 mph 70 % 0.00 in
01:48 62.9 °F 53.0 °F 29.93 in WSW 4.0 mph 6.0 mph 70 % 0.00 in
01:53 63.0 °F 52.7 °F 29.93 in SSW 2.5 mph 9.2 mph 69 % 0.00 in
01:58 63.1 °F 52.8 °F 29.93 in SW 3.3 mph 4.6 mph 69 % 0.00 in
02:03 63.1 °F 52.8 °F 29.93 in WSW 3.1 mph 5.8 mph 69 % 0.00 in
02:14 63.2 °F 52.9 °F 29.93 in West 1.8 mph 3.5 mph 69 % 0.00 in
02:19 63.3 °F 53.0 °F 29.93 in West 0.7 mph 3.5 mph 69 % 0.00 in
02:24 63.3 °F 53.3 °F 29.93 in SW 1.6 mph 3.5 mph 70 % 0.00 in
02:29 63.4 °F 53.4 °F 29.93 in WSW 1.4 mph 3.5 mph 70 % 0.00 in
02:34 63.4 °F 53.4 °F 29.92 in SW 2.0 mph 3.5 mph 70 % 0.00 in
02:39 63.3 °F 53.0 °F 29.92 in SW 1.1 mph 2.3 mph 69 % 0.00 in
02:44 63.3 °F 53.3 °F 29.92 in WSW 0.2 mph 1.2 mph 70 % 0.00 in
02:49 63.2 °F 53.3 °F 29.92 in SW 0.2 mph 2.3 mph 70 % 0.00 in
02:54 63.2 °F 53.3 °F 29.92 in SW 0.6 mph 3.5 mph 70 % 0.00 in
03:00 63.1 °F 53.2 °F 29.92 in Calm   3.5 mph 70 % 0.00 in
03:05 63.0 °F 53.1 °F 29.92 in SW 2.7 mph 4.6 mph 70 % 0.00 in
03:10 62.9 °F 53.4 °F 29.92 in West 1.3 mph 3.5 mph 71 % 0.00 in
03:15 62.8 °F 53.3 °F 29.92 in WSW 1.0 mph 3.0 mph 71 % 0.00 in
03:20 62.7 °F 53.2 °F 29.92 in SW 2.0 mph 3.5 mph 71 % 0.00 in
03:25 62.6 °F 53.1 °F 29.93 in Calm   1.2 mph 71 % 0.00 in
03:30 62.5 °F 53.0 °F 29.92 in SW 1.2 mph 3.5 mph 71 % 0.00 in
03:35 62.4 °F 53.3 °F 29.93 in SW 0.9 mph 2.3 mph 72 % 0.00 in
03:40 62.4 °F 53.3 °F 29.92 in SW 0.6 mph 1.2 mph 72 % 0.00 in
03:45 62.3 °F 53.2 °F 29.92 in Calm     72 % 0.00 in
03:51 62.2 °F 53.1 °F 29.92 in Calm     72 % 0.00 in
03:56 62.2 °F 53.1 °F 29.92 in Calm     72 % 0.00 in
04:01 62.1 °F 53.0 °F 29.92 in Calm     72 % 0.00 in
04:06 62.0 °F 52.9 °F 29.92 in Calm     72 % 0.00 in
04:11 61.9 °F 53.1 °F 29.92 in Calm     73 % 0.00 in
04:16 61.8 °F 53.4 °F 29.92 in Calm     74 % 0.00 in
04:21 61.7 °F 53.3 °F 29.92 in Calm     74 % 0.00 in
04:26 61.6 °F 53.2 °F 29.91 in Calm     74 % 0.00 in
04:31 61.4 °F 53.0 °F 29.91 in Calm     74 % 0.00 in
04:36 61.2 °F 53.2 °F 29.91 in Calm     75 % 0.00 in
04:42 61.1 °F 53.1 °F 29.91 in SW 1.6 mph 2.0 mph 75 % 0.00 in
04:52 60.7 °F 53.1 °F 29.91 in SW 1.0 mph 2.3 mph 76 % 0.00 in
04:57 60.5 °F 52.9 °F 29.91 in Calm   1.2 mph 76 % 0.00 in
05:02 60.4 °F 52.8 °F 29.91 in Calm     76 % 0.00 in
05:07 60.3 °F 52.7 °F 29.91 in SW 0.8 mph 1.2 mph 76 % 0.00 in
05:12 60.1 °F 52.9 °F 29.91 in SW 1.3 mph 3.5 mph 77 % 0.00 in
05:17 59.9 °F 52.7 °F 29.90 in Calm   1.0 mph 77 % 0.00 in
05:22 59.8 °F 52.6 °F 29.91 in SW 0.7 mph 2.3 mph 77 % 0.00 in
05:27 59.7 °F 52.8 °F 29.91 in SW 0.2 mph 1.2 mph 78 % 0.00 in
05:33 59.5 °F 52.6 °F 29.91 in SW 1.9 mph 3.5 mph 78 % 0.00 in
05:43 59.1 °F 52.6 °F 29.92 in SSW 1.2 mph 3.5 mph 79 % 0.00 in
05:48 58.9 °F 52.7 °F 29.91 in SSW 0.5 mph 2.0 mph 80 % 0.00 in
05:58 58.6 °F 52.8 °F 29.91 in SSW 0.6 mph 2.3 mph 81 % 0.00 in
06:03 58.5 °F 53.0 °F 29.92 in SSW 2.2 mph 3.5 mph 82 % 0.00 in
06:08 58.3 °F 52.8 °F 29.91 in SSW 1.6 mph 3.0 mph 82 % 0.00 in
06:13 58.2 °F 52.7 °F 29.92 in Calm   3.5 mph 82 % 0.00 in
06:18 58.1 °F 53.0 °F 29.91 in SSW 1.2 mph 2.3 mph 83 % 0.00 in
06:24 58.0 °F 52.9 °F 29.91 in SSW 2.2 mph 3.5 mph 83 % 0.00 in
06:29 58.0 °F 53.2 °F 29.91 in SSW 1.3 mph 3.5 mph 84 % 0.00 in
06:34 58.0 °F 53.2 °F 29.92 in SSW 1.1 mph 3.5 mph 84 % 0.00 in
06:39 58.0 °F 53.5 °F 29.91 in SSW 0.2 mph 1.2 mph 85 % 0.00 in
06:44 58.1 °F 53.6 °F 29.91 in SSW 0.9 mph 2.3 mph 85 % 0.00 in
06:49 58.3 °F 53.8 °F 29.91 in South 0.5 mph 2.0 mph 85 % 0.00 in
06:54 58.4 °F 53.9 °F 29.91 in Calm   2.3 mph 85 % 0.00 in
06:59 58.6 °F 54.1 °F 29.91 in South 0.4 mph 1.2 mph 85 % 0.00 in
07:04 58.8 °F 54.3 °F 29.91 in South 0.1 mph 2.0 mph 85 % 0.00 in
07:09 59.1 °F 54.6 °F 29.91 in South 0.2 mph 3.5 mph 85 % 0.00 in
07:15 59.4 °F 54.9 °F 29.91 in South 1.6 mph 2.0 mph 85 % 0.00 in
07:20 59.8 °F 55.0 °F 29.91 in South 1.8 mph 3.5 mph 84 % 0.00 in
07:25 60.1 °F 55.2 °F 29.92 in SSW 2.5 mph 3.5 mph 84 % 0.00 in
07:30 60.5 °F 55.3 °F 29.92 in SW 1.7 mph 4.0 mph 83 % 0.00 in
07:35 60.9 °F 55.7 °F 29.92 in South 0.3 mph 3.5 mph 83 % 0.00 in
07:40 61.3 °F 55.8 °F 29.91 in South 0.5 mph 3.5 mph 82 % 0.00 in
07:45 61.8 °F 56.2 °F 29.92 in South 2.3 mph 4.0 mph 82 % 0.00 in
07:50 62.4 °F 56.5 °F 29.91 in SW 2.0 mph 3.0 mph 81 % 0.00 in
07:55 63.1 °F 56.8 °F 29.92 in SSW 2.1 mph 3.5 mph 80 % 0.00 in
08:00 63.7 °F 57.1 °F 29.92 in SW 1.6 mph 3.5 mph 79 % 0.00 in
08:06 64.3 °F 57.6 °F 29.92 in SSW 1.3 mph 3.5 mph 79 % 0.00 in
08:11 64.7 °F 57.7 °F 29.92 in SSW 0.7 mph 2.3 mph 78 % 0.00 in
08:16 65.2 °F 58.2 °F 29.91 in SSW 2.0 mph 4.0 mph 78 % 0.00 in
08:21 65.6 °F 58.6 °F 29.92 in SSW 1.0 mph 3.5 mph 78 % 0.00 in
08:26 66.3 °F 58.5 °F 29.92 in SW 4.7 mph 6.9 mph 76 % 0.00 in
08:31 67.0 °F 59.2 °F 29.92 in South 1.2 mph 3.5 mph 76 % 0.00 in
08:36 67.7 °F 59.1 °F 29.91 in WSW 4.4 mph 5.8 mph 74 % 0.00 in
08:41 68.3 °F 59.3 °F 29.91 in SW 5.2 mph 8.1 mph 73 % 0.00 in
08:46 68.8 °F 59.4 °F 29.91 in SW 6.2 mph 10.4 mph 72 % 0.00 in
08:52 69.2 °F 59.4 °F 29.91 in SW 2.9 mph 5.8 mph 71 % 0.00 in
08:57 69.3 °F 59.5 °F 29.91 in SSW 2.5 mph 5.0 mph 71 % 0.00 in
09:02 69.6 °F 59.8 °F 29.91 in SSW 1.8 mph 3.5 mph 71 % 0.00 in
09:12 70.5 °F 60.2 °F 29.90 in SSW 5.5 mph 9.2 mph 70 % 0.00 in
09:17 71.0 °F 59.9 °F 29.90 in SW 6.4 mph 8.1 mph 68 % 0.00 in
09:22 71.4 °F 61.1 °F 29.90 in WSW 5.7 mph 7.0 mph 70 % 0.00 in
09:27 71.9 °F 60.3 °F 29.90 in WSW 5.7 mph 10.0 mph 67 % 0.00 in
09:37 72.6 °F 60.6 °F 29.90 in West 4.1 mph 6.9 mph 66 % 0.00 in
09:43 73.0 °F 61.0 °F 29.90 in West 1.4 mph 3.5 mph 66 % 0.00 in
09:48 73.3 °F 60.8 °F 29.90 in SW 3.6 mph 6.9 mph 65 % 0.00 in
09:53 73.7 °F 61.2 °F 29.90 in WSW 3.4 mph 8.1 mph 65 % 0.00 in
09:58 74.1 °F 61.6 °F 29.90 in WSW 5.2 mph 8.1 mph 65 % 0.00 in
10:03 74.3 °F 61.3 °F 29.90 in SW 2.2 mph 3.5 mph 64 % 0.00 in
10:08 74.6 °F 61.2 °F 29.89 in SSW 2.8 mph 5.0 mph 63 % 0.00 in
10:13 74.9 °F 62.3 °F 29.89 in SW 2.3 mph 4.6 mph 65 % 0.00 in
10:18 75.3 °F 61.4 °F 29.89 in SSW 2.0 mph 4.6 mph 62 % 0.00 in
10:23 75.7 °F 61.3 °F 29.89 in West 4.1 mph 6.9 mph 61 % 0.00 in
10:28 75.9 °F 61.5 °F 29.88 in SW 3.0 mph 3.5 mph 61 % 0.00 in
10:38 76.4 °F 61.0 °F 29.89 in SSW 5.4 mph 8.1 mph 59 % 0.00 in
10:44 76.6 °F 61.2 °F 29.89 in SSW 1.5 mph 5.8 mph 59 % 0.00 in
10:49 76.8 °F 61.4 °F 29.89 in WNW 3.2 mph 6.9 mph 59 % 0.00 in
10:54 77.1 °F 61.2 °F 29.89 in South 1.4 mph 2.3 mph 58 % 0.00 in
10:59 77.6 °F 61.7 °F 29.89 in NNE 1.7 mph 3.5 mph 58 % 0.00 in
11:04 78.0 °F 61.5 °F 29.89 in WNW 1.4 mph 5.0 mph 57 % 0.00 in
11:09 78.3 °F 61.8 °F 29.89 in West 1.9 mph 8.1 mph 57 % 0.00 in
11:14 78.2 °F 60.7 °F 29.88 in WNW 4.9 mph 5.8 mph 55 % 0.00 in
11:19 78.0 °F 61.5 °F 29.88 in WNW 0.5 mph 2.3 mph 57 % 0.00 in
11:24 77.8 °F 60.3 °F 29.88 in East 0.3 mph 2.3 mph 55 % 0.00 in
11:29 76.8 °F 58.9 °F 29.88 in ENE 1.2 mph 4.6 mph 54 % 0.00 in
11:35 76.1 °F 60.2 °F 29.87 in ENE 3.3 mph 5.0 mph 58 % 0.00 in
11:40 75.6 °F 59.8 °F 29.87 in ENE 3.0 mph 4.0 mph 58 % 0.00 in
11:50 74.9 °F 61.5 °F 29.87 in ENE 2.1 mph 3.5 mph 63 % 0.00 in
11:55 74.7 °F 60.4 °F 29.86 in NNE 4.2 mph 6.9 mph 61 % 0.00 in
12:00 75.1 °F 62.1 °F 29.86 in North 1.9 mph 4.0 mph 64 % 0.00 in
12:05 75.4 °F 61.9 °F 29.86 in ENE 1.3 mph 4.0 mph 63 % 0.00 in
12:10 75.6 °F 61.7 °F 29.86 in NNE 3.0 mph 4.0 mph 62 % 0.00 in
12:15 76.0 °F 61.6 °F 29.86 in NNE 5.3 mph 6.0 mph 61 % 0.00 in
12:20 76.7 °F 62.2 °F 29.86 in North 2.6 mph 5.0 mph 61 % 0.00 in
12:26 77.4 °F 62.4 °F 29.86 in NE 1.7 mph 3.5 mph 60 % 0.00 in
12:31 78.1 °F 62.6 °F 29.86 in NNE 2.2 mph 5.0 mph 59 % 0.00 in
12:36 78.3 °F 61.3 °F 29.85 in ENE 4.4 mph 6.9 mph 56 % 0.00 in
12:41 78.3 °F 62.3 °F 29.85 in NNE 3.5 mph 5.0 mph 58 % 0.00 in
12:46 78.4 °F 62.4 °F 29.85 in North 2.6 mph 4.0 mph 58 % 0.00 in
12:51 78.3 °F 60.3 °F 29.85 in ENE 3.9 mph 5.0 mph 54 % 0.00 in
12:56 77.1 °F 61.2 °F 29.85 in NE 1.8 mph 3.5 mph 58 % 0.00 in
13:01 77.3 °F 60.9 °F 29.85 in NNE 4.4 mph 5.0 mph 57 % 0.00 in
13:06 77.6 °F 62.1 °F 29.85 in NNE 2.7 mph 5.0 mph 59 % 0.00 in
13:11 78.0 °F 62.5 °F 29.84 in ENE 2.2 mph 5.0 mph 59 % 0.00 in
13:17 77.6 °F 61.2 °F 29.84 in NNE 4.0 mph 5.8 mph 57 % 0.00 in
13:22 77.6 °F 60.2 °F 29.84 in NNW 0.5 mph 3.5 mph 55 % 0.00 in
13:27 76.2 °F 59.4 °F 29.84 in NE 1.9 mph 4.6 mph 56 % 0.00 in
13:32 75.4 °F 61.5 °F 29.84 in NE 1.7 mph 3.5 mph 62 % 0.00 in
13:37 76.0 °F 61.1 °F 29.84 in NNE 1.9 mph 3.5 mph 60 % 0.00 in
13:42 76.6 °F 61.7 °F 29.84 in SSE 1.3 mph 6.0 mph 60 % 0.00 in
13:47 77.3 °F 60.9 °F 29.83 in SSE 3.0 mph 4.6 mph 57 % 0.00 in
13:52 78.0 °F 61.0 °F 29.83 in SSE 1.4 mph 3.5 mph 56 % 0.00 in
13:57 78.4 °F 61.4 °F 29.83 in SW 1.2 mph 8.0 mph 56 % 0.00 in
14:02 78.9 °F 61.4 °F 29.83 in WSW 1.6 mph 3.5 mph 55 % 0.00 in
14:08 79.5 °F 61.9 °F 29.83 in WSW 1.5 mph 4.6 mph 55 % 0.00 in
14:13 79.8 °F 62.2 °F 29.83 in SSW 3.7 mph 8.1 mph 55 % 0.00 in
14:18 80.1 °F 62.0 °F 29.83 in South 0.8 mph 4.6 mph 54 % 0.00 in
14:23 80.3 °F 63.2 °F 29.83 in SSE 4.4 mph 8.1 mph 56 % 0.00 in
14:28 80.0 °F 61.9 °F 29.82 in SE 3.5 mph 8.1 mph 54 % 0.00 in
14:33 79.7 °F 62.1 °F 29.82 in SSW 4.9 mph 7.0 mph 55 % 0.00 in
14:38 79.7 °F 62.1 °F 29.81 in South 1.9 mph 4.6 mph 55 % 0.00 in
14:43 79.7 °F 62.6 °F 29.81 in South 2.7 mph 6.9 mph 56 % 0.00 in
14:48 80.2 °F 62.6 °F 29.81 in SSW 3.0 mph 6.0 mph 55 % 0.00 in
14:54 80.8 °F 63.1 °F 29.81 in South 2.5 mph 7.0 mph 55 % 0.00 in
14:59 81.3 °F 63.1 °F 29.81 in WSW 4.2 mph 6.9 mph 54 % 0.00 in
15:04 81.6 °F 61.7 °F 29.80 in WSW 5.8 mph 8.1 mph 51 % 0.00 in
15:09 81.8 °F 61.9 °F 29.81 in SSW 3.7 mph 6.9 mph 51 % 0.00 in
15:14 81.9 °F 62.0 °F 29.81 in SE 1.9 mph 7.0 mph 51 % 0.00 in
15:19 80.9 °F 61.1 °F 29.80 in South 3.8 mph 5.8 mph 51 % 0.00 in
15:29 80.6 °F 61.9 °F 29.80 in South 3.3 mph 5.8 mph 53 % 0.00 in
15:39 81.0 °F 62.3 °F 29.80 in SW 3.3 mph 4.6 mph 53 % 0.00 in
15:45 81.1 °F 61.8 °F 29.80 in SSW 5.7 mph 8.1 mph 52 % 0.00 in
15:50 81.0 °F 61.7 °F 29.80 in SSW 5.2 mph 7.0 mph 52 % 0.00 in
16:00 81.5 °F 62.2 °F 29.79 in SSW 4.6 mph 7.0 mph 52 % 0.00 in
16:05 81.5 °F 62.2 °F 29.79 in SSE 2.2 mph 7.0 mph 52 % 0.00 in
16:10 81.2 °F 61.9 °F 29.79 in SSW 5.0 mph 8.1 mph 52 % 0.00 in
16:15 81.1 °F 61.3 °F 29.79 in SW 5.6 mph 9.0 mph 51 % 0.00 in
16:20 81.2 °F 62.4 °F 29.79 in SSW 5.5 mph 9.2 mph 53 % 0.00 in
16:25 81.1 °F 61.3 °F 29.79 in SW 3.7 mph 6.9 mph 51 % 0.00 in
16:30 80.8 °F 61.0 °F 29.79 in South 3.4 mph 4.0 mph 51 % 0.00 in
16:36 80.3 °F 61.6 °F 29.79 in SSW 3.4 mph 6.9 mph 53 % 0.00 in
16:41 79.9 °F 60.7 °F 29.79 in SSE 4.1 mph 7.0 mph 52 % 0.00 in
16:51 78.8 °F 60.7 °F 29.78 in SSW 6.3 mph 10.4 mph 54 % 0.00 in
16:56 78.5 °F 60.5 °F 29.78 in SSW 3.2 mph 5.0 mph 54 % 0.00 in
17:01 78.1 °F 60.1 °F 29.78 in SSW 4.4 mph 9.2 mph 54 % 0.00 in
17:06 77.9 °F 60.4 °F 29.78 in South 2.3 mph 6.9 mph 55 % 0.00 in
17:11 77.6 °F 60.2 °F 29.78 in SSW 2.1 mph 3.5 mph 55 % 0.00 in
17:16 77.3 °F 60.4 °F 29.78 in South 2.9 mph 4.0 mph 56 % 0.00 in
17:27 76.4 °F 60.0 °F 29.78 in SSW 3.2 mph 4.0 mph 57 % 0.00 in
17:32 76.2 °F 60.3 °F 29.78 in South 3.1 mph 6.0 mph 58 % 0.00 in
17:37 76.0 °F 59.7 °F 29.78 in South 2.6 mph 3.5 mph 57 % 0.00 in
17:42 75.5 °F 59.2 °F 29.78 in South 2.6 mph 8.1 mph 57 % 0.00 in
17:47 75.2 °F 59.4 °F 29.78 in SSW 5.5 mph 9.2 mph 58 % 0.00 in
17:52 74.9 °F 59.1 °F 29.78 in SW 3.7 mph 5.0 mph 58 % 0.00 in
17:57 74.6 °F 58.8 °F 29.78 in SSW 2.4 mph 6.0 mph 58 % 0.00 in
18:02 74.3 °F 59.0 °F 29.78 in South 3.7 mph 6.9 mph 59 % 0.00 in
18:07 74.0 °F 58.8 °F 29.78 in SSW 5.6 mph 8.1 mph 59 % 0.00 in
18:12 73.5 °F 58.3 °F 29.78 in WSW 3.7 mph 6.9 mph 59 % 0.00 in
18:18 73.1 °F 58.4 °F 29.78 in SSW 3.1 mph 6.9 mph 60 % 0.00 in
18:23 72.8 °F 58.6 °F 29.78 in SSW 2.8 mph 6.9 mph 61 % 0.00 in
18:28 72.5 °F 58.3 °F 29.78 in SW 2.3 mph 6.9 mph 61 % 0.00 in
18:33 72.2 °F 58.5 °F 29.77 in SSW 3.6 mph 4.6 mph 62 % 0.00 in
18:38 71.9 °F 58.2 °F 29.78 in SSW 1.9 mph 4.6 mph 62 % 0.00 in
18:43 71.6 °F 58.3 °F 29.78 in South 1.2 mph 3.5 mph 63 % 0.00 in
18:48 71.4 °F 58.1 °F 29.77 in SSW 3.2 mph 4.6 mph 63 % 0.00 in
18:53 71.3 °F 58.5 °F 29.77 in SSW 1.2 mph 3.5 mph 64 % 0.00 in
18:58 71.3 °F 58.5 °F 29.77 in South 5.1 mph 6.9 mph 64 % 0.00 in
19:03 71.3 °F 58.5 °F 29.77 in South 1.0 mph 3.5 mph 64 % 0.00 in
19:09 71.3 °F 58.5 °F 29.77 in SSW 2.6 mph 3.5 mph 64 % 0.00 in
19:14 71.3 °F 58.5 °F 29.77 in SSW 1.0 mph 3.5 mph 64 % 0.00 in
19:19 71.3 °F 58.5 °F 29.77 in WSW 2.3 mph 8.1 mph 64 % 0.00 in
19:24 71.2 °F 58.4 °F 29.77 in SW 1.9 mph 3.5 mph 64 % 0.00 in
19:29 71.2 °F 58.4 °F 29.77 in Calm   1.0 mph 64 % 0.00 in
19:34 71.1 °F 58.3 °F 29.77 in SW 3.4 mph 5.8 mph 64 % 0.00 in
19:44 71.0 °F 58.6 °F 29.77 in South 0.6 mph 3.5 mph 65 % 0.00 in
19:49 70.9 °F 58.5 °F 29.77 in SSW 0.4 mph 3.0 mph 65 % 0.00 in
19:54 70.8 °F 58.0 °F 29.78 in SSW 3.9 mph 5.0 mph 64 % 0.00 in
20:05 70.6 °F 57.8 °F 29.78 in West 1.1 mph 4.6 mph 64 % 0.00 in
20:10 70.6 °F 57.8 °F 29.78 in NNE 4.0 mph 5.8 mph 64 % 0.00 in
20:15 70.1 °F 57.4 °F 29.78 in Calm     64 % 0.00 in
20:20 69.8 °F 57.1 °F 29.79 in Calm     64 % 0.00 in
20:25 69.3 °F 57.0 °F 29.79 in Calm     65 % 0.00 in
20:30 68.8 °F 57.0 °F 29.79 in Calm     66 % 0.00 in
20:35 68.4 °F 57.0 °F 29.79 in Calm     67 % 0.00 in
20:45 67.9 °F 57.4 °F 29.79 in Calm     69 % 0.00 in
20:51 67.6 °F 57.1 °F 29.79 in NNE 0.1 mph 1.2 mph 69 % 0.00 in
20:56 67.4 °F 57.3 °F 29.79 in SSW 0.5 mph 4.0 mph 70 % 0.00 in
21:01 67.3 °F 57.6 °F 29.79 in SW 3.9 mph 11.5 mph 71 % 0.00 in
21:06 67.4 °F 57.7 °F 29.79 in WSW 3.5 mph 5.8 mph 71 % 0.00 in
21:11 67.7 °F 57.6 °F 29.79 in SW 4.1 mph 8.1 mph 70 % 0.00 in
21:16 68.0 °F 57.4 °F 29.79 in SSW 5.2 mph 10.4 mph 69 % 0.00 in
21:21 68.4 °F 57.4 °F 29.79 in SW 4.8 mph 9.2 mph 68 % 0.00 in
21:26 68.8 °F 57.4 °F 29.79 in SW 2.2 mph 4.6 mph 67 % 0.00 in
21:31 69.1 °F 57.7 °F 29.79 in SSE 4.5 mph 6.9 mph 67 % 0.00 in
21:36 69.3 °F 57.5 °F 29.78 in SSW 4.4 mph 8.0 mph 66 % 0.00 in
21:42 69.5 °F 57.6 °F 29.79 in SSW 4.9 mph 5.0 mph 66 % 0.00 in
21:47 69.6 °F 57.7 °F 29.79 in SSW 3.5 mph 8.1 mph 66 % 0.00 in
21:52 69.7 °F 57.8 °F 29.78 in SW 3.2 mph 5.8 mph 66 % 0.00 in
21:57 69.7 °F 57.4 °F 29.79 in South 4.3 mph 6.9 mph 65 % 0.00 in
22:02 69.8 °F 57.5 °F 29.79 in SW 4.1 mph 8.1 mph 65 % 0.00 in
22:07 69.8 °F 57.5 °F 29.79 in SW 5.2 mph 9.2 mph 65 % 0.00 in
22:12 69.8 °F 57.5 °F 29.78 in SSW 4.7 mph 8.1 mph 65 % 0.00 in
22:17 69.8 °F 57.1 °F 29.79 in SW 3.5 mph 10.4 mph 64 % 0.00 in
22:22 69.8 °F 57.5 °F 29.78 in South 4.3 mph 12.0 mph 65 % 0.00 in
22:27 69.8 °F 57.5 °F 29.79 in SW 4.9 mph 9.0 mph 65 % 0.00 in
22:33 69.7 °F 57.4 °F 29.78 in SSW 3.6 mph 8.1 mph 65 % 0.00 in
22:38 69.7 °F 57.4 °F 29.78 in SSW 4.0 mph 4.6 mph 65 % 0.00 in
22:43 69.6 °F 57.3 °F 29.78 in SW 4.2 mph 6.9 mph 65 % 0.00 in
22:48 69.5 °F 57.2 °F 29.78 in SW 4.2 mph 6.0 mph 65 % 0.00 in
22:53 69.4 °F 57.5 °F 29.78 in South 3.7 mph 5.8 mph 66 % 0.00 in
22:58 69.4 °F 57.5 °F 29.78 in SSW 3.8 mph 5.8 mph 66 % 0.00 in
23:03 69.3 °F 57.5 °F 29.78 in SSW 3.8 mph 4.0 mph 66 % 0.00 in
23:08 69.2 °F 57.8 °F 29.78 in SW 3.6 mph 4.0 mph 67 % 0.00 in
23:13 69.1 °F 57.7 °F 29.78 in SSW 2.8 mph 11.5 mph 67 % 0.00 in
23:18 69.0 °F 57.6 °F 29.78 in SSW 3.7 mph 8.1 mph 67 % 0.00 in
23:24 68.9 °F 57.5 °F 29.78 in SW 2.7 mph 5.0 mph 67 % 0.00 in
23:29 68.8 °F 57.4 °F 29.78 in SW 2.1 mph 5.8 mph 67 % 0.00 in
23:34 68.7 °F 57.3 °F 29.78 in SSW 4.3 mph 6.9 mph 67 % 0.00 in
23:39 68.6 °F 57.6 °F 29.78 in SSW 2.3 mph 4.6 mph 68 % 0.00 in
23:44 68.6 °F 57.6 °F 29.77 in SW 2.5 mph 4.6 mph 68 % 0.00 in
23:49 68.5 °F 57.5 °F 29.77 in SW 2.1 mph 3.5 mph 68 % 0.00 in
23:59 68.3 °F 57.3 °F 29.77 in SW 2.0 mph 3.5 mph 68 % 0.00 in
Crab Meadow Weather
Compliments of Weather Underground - 2.75 mb

Script developed by  Jim McMurry - jmcmurry@mwt.net Adapted for the template by  Wim van der Kuil - Leuven-Template.eu

Astronomy: February 1865 is the only month recorded in history not to have a full moon.